CANX-2

Last updated on Sun Dec 14 2025 00:03:49 GMT+0000 (Coordinated Universal Time)

1 32790U 08021H 25346.90034711 .00006511 00000+0 47819-3 0 9991 2 32790 97.8427 318.5437 0009551 321.9241 38.1308 15.03770857956795
UTC large
Height (km)
Speed (km/s)
/
Latitude / Longitude
Inclination (degrees)
Orbital Period (minutes)
Azimuth
Elevation
Range (km)
Doppler Factor

Next 0 passes for location: London (51.5072 / 0.1276)

Sorry there are no passes over London.